Find Starlink 11533

NORAD ID: 62836 Int'l Des: 2025-019 Owner: SPXS Country: US Constellation: starlink operational
LEOCIRCULAR

Current View

Loading 3D Globe...

About Starlink 11533

Starlink 11533 (NORAD 62836) is a starlink constellation satellite (v2 mini d2c) launched Jan 27, 2025 by SPXS of US. It operates in LEO, CIRCULAR orbit with a mass of 960.00 kg.

About Starlink 11533

Description loading...

Upcoming Passes

Passes for default location (London). Set your location on the main map for personalized predictions.

Altitude History

Loading altitude history...

Two-Line Element Set

1 62836U 25019H 26167.01355310 .00168078 00000-0 12781-2 0 9993
2 62836 43.0019 73.3983 0006405 268.6323 91.3811 15.70986287 79341
Epoch: Jun 16, 2026 • Age: 8 hours

Current Status

Altitude 363.1 km
Velocity 7.70 km/s
Sub-Earth Point 43.03°N, 126.44°E
Launch Date Jan 27, 2025
Age 1.3 years
Type internet

Technical Details

Classification Payload
Mass 960.00 kg
Dry Mass 910.00 kg
Total Mass 960.00 kg
Length 0.30 m
Diameter 4.10 m
Span 29.00 m
Shape Box + pan
Manufacturer SPXS
Bus Type Starlink V2MD
Phase Status In Orbit
Owner/State SPXS/US

Most Searched